• In Hungary
  • List of Countries
  • For 7 days
  • Water Temperature
  • Satellite Maps
  • Weather Map
  • News
  • Weather Widgets
  • user-avatar
    Login

    Hourly Weather Zdzilowice

    Today, 11 December, Monday

    Time Temperature Precipitation Wind Pressure Humidity
    00:00 -4°C° 0.1 mm 8 mps 725 mmHg 58%
    01:00 -2°C° 0.1 mm 8 mps 725 mmHg 61%
    02:00 -3°C° 0.1 mm 9 mps 725 mmHg 63%
    03:00 -2°C° 0 mm 8 mps 725 mmHg 64%
    04:00 -2°C° 0 mm 8 mps 725 mmHg 66%
    05:00 -2°C° 0 mm 8 mps 725 mmHg 67%
    06:00 -2°C° 0 mm 8 mps 725 mmHg 69%
    07:00 -1°C° 0 mm 8 mps 725 mmHg 71%
    08:00 -1°C° 0 mm 8 mps 725 mmHg 73%
    09:00 0°C° 0 mm 8 mps 725 mmHg 72%
    10:00 0°C° 0 mm 8 mps 725 mmHg 71%
    11:00 +1°C° 0 mm 8 mps 725 mmHg 70%
    12:00 +2°C° 0 mm 8 mps 725 mmHg 71%
    13:00 +2°C° 0 mm 8 mps 725 mmHg 71%
    14:00 +4°C° 0 mm 8 mps 725 mmHg 71%
    15:00 +4°C° 0 mm 7 mps 725 mmHg 74%
    16:00 +4°C° 0 mm 7 mps 725 mmHg 76%
    17:00 +4°C° 0 mm 6 mps 725 mmHg 79%
    18:00 +4°C° 0 mm 6 mps 725 mmHg 79%
    19:00 +4°C° 0 mm 6 mps 725 mmHg 79%
    20:00 +5°C° 0 mm 6 mps 725 mmHg 79%
    21:00 +5°C° 0 mm 6 mps 725 mmHg 78%
    22:00 +6°C° 0 mm 7 mps 725 mmHg 77%
    23:00 +6°C° 0 mm 7 mps 725 mmHg 76%

    Tomorrow, 12 December, Tuesday

    Time Temperature Precipitation Wind Pressure Humidity
    00:00 +6°C° 0 mm 7 mps 726 mmHg 75%
    01:00 +6°C° 0 mm 8 mps 726 mmHg 74%
    02:00 +6°C° 0 mm 8 mps 726 mmHg 74%
    03:00 +6°C° 0 mm 7 mps 726 mmHg 74%
    04:00 +6°C° 0 mm 7 mps 726 mmHg 74%
    05:00 +6°C° 0 mm 7 mps 726 mmHg 74%
    06:00 +6°C° 0 mm 7 mps 726 mmHg 74%
    07:00 +6°C° 0 mm 7 mps 727 mmHg 75%
    08:00 +7°C° 0 mm 6 mps 727 mmHg 75%
    09:00 +8°C° 0 mm 7 mps 728 mmHg 72%
    10:00 +7°C° 0 mm 8 mps 728 mmHg 69%
    11:00 +8°C° 0 mm 9 mps 729 mmHg 66%
    12:00 +10°C° 0 mm 8 mps 729 mmHg 66%
    13:00 +10°C° 0 mm 8 mps 730 mmHg 65%
    14:00 +11°C° 0 mm 8 mps 730 mmHg 64%
    15:00 +10°C° 0 mm 7 mps 731 mmHg 68%
    16:00 +9°C° 0 mm 6 mps 731 mmHg 71%
    17:00 +8°C° 0 mm 5 mps 732 mmHg 74%
    18:00 +8°C° 0.1 mm 5 mps 732 mmHg 73%
    19:00 +7°C° 0.1 mm 4 mps 733 mmHg 72%
    20:00 +6°C° 0.1 mm 4 mps 734 mmHg 70%
    21:00 +6°C° 0.3 mm 4 mps 734 mmHg 70%
    22:00 +5°C° 0.3 mm 4 mps 735 mmHg 70%
    23:00 +4°C° 0.3 mm 4 mps 736 mmHg 70%

    Day after tomorrow, 13 December, Wednesday

    Time Temperature Precipitation Wind Pressure Humidity
    00:00 +4°C° 0.4 mm 4 mps 736 mmHg 70%
    01:00 +3°C° 0.4 mm 4 mps 737 mmHg 69%
    02:00 +3°C° 0.4 mm 4 mps 737 mmHg 68%
    03:00 +3°C° 0.2 mm 4 mps 737 mmHg 69%
    04:00 +2°C° 0.2 mm 3 mps 738 mmHg 70%
    05:00 +2°C° 0.2 mm 3 mps 738 mmHg 71%
    06:00 +2°C° 0 mm 3 mps 738 mmHg 72%
    07:00 +2°C° 0 mm 3 mps 739 mmHg 73%
    08:00 +1°C° 0 mm 3 mps 739 mmHg 74%
    09:00 +1°C° 0 mm 3 mps 740 mmHg 73%
    10:00 +1°C° 0 mm 3 mps 740 mmHg 73%
    11:00 0°C° 0 mm 4 mps 740 mmHg 72%
    12:00 +2°C° 0 mm 3 mps 740 mmHg 71%
    13:00 +2°C° 0 mm 3 mps 740 mmHg 69%
    14:00 +3°C° 0 mm 2 mps 740 mmHg 68%
    15:00 +2°C° 0 mm 2 mps 740 mmHg 71%
    16:00 +2°C° 0 mm 2 mps 739 mmHg 75%
    17:00 +1°C° 0 mm 2 mps 739 mmHg 79%
    18:00 -1°C° 0 mm 2 mps 739 mmHg 81%
    19:00 -1°C° 0 mm 2 mps 739 mmHg 83%
    20:00 -1°C° 0 mm 2 mps 738 mmHg 85%
    21:00 -1°C° 0 mm 3 mps 738 mmHg 85%
    22:00 -1°C° 0 mm 3 mps 738 mmHg 85%
    23:00 -1°C° 0 mm 3 mps 737 mmHg 85%

    14 December, Thursday

    Time Temperature Precipitation Wind Pressure Humidity
    00:00 -1°C° 0 mm 3 mps 737 mmHg 84%
    01:00 -2°C° 0 mm 4 mps 736 mmHg 83%
    02:00 -2°C° 0 mm 4 mps 735 mmHg 82%
    03:00 -2°C° 0 mm 4 mps 735 mmHg 81%
    04:00 -2°C° 0 mm 4 mps 734 mmHg 81%
    05:00 -2°C° 0 mm 4 mps 734 mmHg 80%
    06:00 -2°C° 0 mm 5 mps 733 mmHg 78%
    07:00 -2°C° 0 mm 5 mps 733 mmHg 75%
    08:00 -1°C° 0 mm 5 mps 733 mmHg 72%
    09:00 -2°C° 0 mm 6 mps 732 mmHg 71%
    10:00 -1°C° 0 mm 6 mps 732 mmHg 69%
    11:00 0°C° 0 mm 7 mps 732 mmHg 67%
    12:00 0°C° 0 mm 7 mps 732 mmHg 67%
    13:00 +2°C° 0 mm 7 mps 731 mmHg 67%
    14:00 +2°C° 0 mm 7 mps 731 mmHg 67%
    15:00 +2°C° 0 mm 6 mps 731 mmHg 71%
    16:00 +1°C° 0 mm 5 mps 731 mmHg 75%
    17:00 0°C° 0 mm 5 mps 731 mmHg 79%
    18:00 0°C° 0 mm 5 mps 730 mmHg 80%
    19:00 0°C° 0 mm 5 mps 730 mmHg 81%
    20:00 -1°C° 0 mm 6 mps 730 mmHg 82%
    21:00 -1°C° 0.3 mm 6 mps 729 mmHg 82%
    22:00 +1°C° 0.3 mm 6 mps 728 mmHg 82%
    23:00 +1°C° 0.3 mm 6 mps 728 mmHg 82%

    15 December, Friday

    Time Temperature Precipitation Wind Pressure Humidity
    00:00 +2°C° 0.1 mm 6 mps 727 mmHg 82%
    01:00 +2°C° 0.1 mm 6 mps 726 mmHg 81%
    02:00 +2°C° 0.1 mm 6 mps 726 mmHg 81%
    03:00 +3°C° 0 mm 6 mps 725 mmHg 80%
    04:00 +3°C° 0 mm 7 mps 724 mmHg 80%
    05:00 +3°C° 0 mm 7 mps 724 mmHg 79%
    06:00 +3°C° 0 mm 7 mps 724 mmHg 80%
    07:00 +4°C° 0 mm 7 mps 724 mmHg 80%
    08:00 +4°C° 0 mm 7 mps 724 mmHg 80%
    09:00 +3°C° 0.5 mm 6 mps 725 mmHg 81%
    10:00 +3°C° 0.5 mm 5 mps 726 mmHg 82%
    11:00 +3°C° 0.5 mm 4 mps 727 mmHg 83%
    12:00 +4°C° 0.1 mm 4 mps 728 mmHg 77%
    13:00 +4°C° 0.1 mm 4 mps 728 mmHg 71%
    14:00 +3°C° 0.1 mm 5 mps 729 mmHg 64%
    15:00 +3°C° 0 mm 4 mps 730 mmHg 65%
    16:00 +3°C° 0 mm 4 mps 730 mmHg 65%
    17:00 +2°C° 0 mm 3 mps 731 mmHg 66%
    18:00 +2°C° 0 mm 3 mps 731 mmHg 67%
    19:00 +1°C° 0 mm 3 mps 731 mmHg 68%
    20:00 +2°C° 0 mm 2 mps 731 mmHg 69%
    21:00 +2°C° 0 mm 2 mps 731 mmHg 70%
    22:00 +2°C° 0 mm 2 mps 731 mmHg 70%
    23:00 +3°C° 0 mm 1 mps 732 mmHg 71%

    16 December, Saturday

    Time Temperature Precipitation Wind Pressure Humidity
    00:00 +3°C° 0.2 mm 1 mps 731 mmHg 71%
    01:00 +3°C° 0.2 mm 1 mps 731 mmHg 72%
    02:00 +2°C° 0.2 mm 1 mps 731 mmHg 72%
    03:00 +2°C° 0.8 mm 1 mps 731 mmHg 77%
    04:00 +2°C° 0.8 mm 1 mps 731 mmHg 81%
    05:00 +2°C° 0.8 mm 1 mps 731 mmHg 86%
    06:00 +1°C° 0.5 mm 1 mps 730 mmHg 88%
    07:00 +1°C° 0.5 mm 1 mps 730 mmHg 90%
    08:00 +1°C° 0.5 mm 1 mps 730 mmHg 91%
    09:00 +1°C° 0.1 mm 1 mps 730 mmHg 91%
    10:00 +2°C° 0.1 mm 1 mps 731 mmHg 91%
    11:00 +2°C° 0.1 mm 1 mps 731 mmHg 91%
    12:00 +2°C° 0.2 mm 1 mps 731 mmHg 90%
    13:00 +2°C° 0.2 mm 1 mps 731 mmHg 89%
    14:00 +1°C° 0.2 mm 2 mps 731 mmHg 88%
    15:00 +2°C° 0 mm 1 mps 732 mmHg 88%
    16:00 +2°C° 0 mm 1 mps 732 mmHg 88%
    17:00 +1°C° 0 mm 1 mps 732 mmHg 89%
    18:00 +1°C° 0 mm 1 mps 732 mmHg 88%
    19:00 +1°C° 0 mm 1 mps 733 mmHg 88%
    20:00 +1°C° 0 mm 1 mps 733 mmHg 87%
    21:00 +1°C° 0.1 mm 1 mps 733 mmHg 87%
    22:00 +1°C° 0.1 mm 1 mps 733 mmHg 86%
    23:00 +1°C° 0.1 mm 1 mps 734 mmHg 86%
    Show more